Location: Barruelo
(41.2448°N, 3.8231°W)
Time: 04:40:36
(UTC+00:00)

Cosmos 1726 Rocket - Pass Details

Date: 11 December 2025
Orbit: 553 x 663 km, 82.5° (Epoch: 13 January)

Event Time Altitude Azimuth Distance (km) Brightness Sun altitude
Rises 18:15:50 0° 194° (SSW) 2,983 7.5 -16.2°
Reaches altitude 10° 18:18:07 10° 197° (SSW) 2,076 6.7 -16.6°
Maximum altitude 18:22:42 64° 279° (W) 734 4.1 -17.5°
Drops below altitude 10° 18:27:18 10° 1° (N) 2,070 6.1 -18.3°
Enters shadow 18:29:10 - 5° (N) 2,813 6.7 -18.6°
